Regional Weather Roundup
Issued by NWS State College, PA

Home | Current Version | Previous Version | Graphics & Text | Print | Product List | Glossary Off
Versions: 1 2 3 4 5 6 7 8 9 10 11 12 13 14 15 16 17 18 19 20 21 22 23 24 25 26 27 28 29 30 31 32 33 34 35 36 37 38 39 40 41 42 43 44 45 46 47 48 49 50

000
ASUS41 KCTP 230310
RWRCTP

REGIONAL WEATHER ROUNDUP
NATIONAL WEATHER SERVICE STATE COLLEGE PA
1000 PM EST SAT NOV 22 2014

Note: "fair" indicates few or no clouds below 12,000 feet with no
significant weather and/or obstructions to visibility.

* = STATION THAT DOES NOT REPORT PRECIPITATION /E.G. RAIN...SNOW...ETC/
    THUNDER OR FOG.

PAZ002>004-007>009-013>016-020>023-029>032-230400-
WESTERN PENNSYLVANIA

CITY           SKY/WX    TMP DP  RH WIND       PRES   REMARKS
ERIE           CLOUDY    47  32  56 S23G38    30.00F
MEADVILLE      CLOUDY    43  31  62 S8G18     30.04F
FRANKLIN*      CLOUDY    43  30  61 SW15      30.08S
NEW CASTLE     LGT RAIN  42  35  76 S5        30.09F
BEAVER COUNTY  NOT AVBL
BUTLER*        CLOUDY    46  30  53 S7        30.11S
PITTSBURGH INT CLOUDY    48  30  49 S7        30.10S
PITTSBURGH     CLOUDY    49  25  39 S12       30.10S
INDIANA*       CLOUDY    46  32  57 W7        30.15S
LATROBE        MOCLDY    45  32  61 S9        30.14S
WASHINGTON CO* CLOUDY    46  28  49 S6        30.13S
$$

PAZ004>006-010>012-017>019-024>028-033>037-041-042-045-046-049>053-230400-
CENTRAL PENNSYLVANIA

CITY           SKY/WX    TMP DP  RH WIND       PRES   REMARKS
BRADFORD       LGT RAIN  39  33  79 SW7       30.05F
DUBOIS         CLOUDY    44  32  62 SW12      30.08R
CLEARFIELD     MOCLDY    34  32  92 CALM      30.11S
JOHNSTOWN      MOCLDY    47  30  51 SW12      30.13R
ALTOONA        PTCLDY    37  26  64 S5        30.15R
STATE COLLEGE  MOCLDY    37  26  64 W8        30.13F
WILLIAMSPORT   CLOUDY    33  28  81 NW3       30.17F
SELINSGROVE    MOCLDY    34  19  54 CALM      30.19F
FT INDIANTOWN  PTCLDY    31  20  64 N2        30.21F
CAPITAL CITY   PTCLDY    33  21  61 CALM      30.21F
HARRISBURG     MOCLDY    33  25  72 CALM      30.20F
YORK           MOCLDY    32  21  64 CALM      30.21F
$$

PAZ038>040-043-044-047-048-054-055-060>062-067>071-230400-
EASTERN PENNSYLVANIA

CITY           SKY/WX    TMP DP  RH WIND       PRES   REMARKS
SCRANTON       CLOUDY    37  17  44 SW6       30.15F
MOUNT POCONO   CLOUDY    37  15  40 W13G22    30.13F
ALLENTOWN      CLOUDY    36  19  50 W5        30.22F
QUAKERTOWN*    CLOUDY    39  21  48 SW5       30.23S
READING        MOCLDY    42  21  43 S3        30.21F
LANCASTER      MOCLDY    36  23  59 E5        30.21F
COATESVILLE    MOCLDY    39  23  52 SW3       30.22F
POTTSTOWN      CLOUDY    41  21  44 CALM      30.24F
BLUE BELL      CLOUDY    43  23  45 SW7       30.24R
DOYLESTOWN     CLOUDY    40  19  43 SW6       30.22F
WILLOW GROVE   NOT AVBL
NORTH PHILA    CLOUDY    44  21  40 SW9       30.26F
PHILADELPHIA   MOCLDY    42  24  49 S9        30.27F
$$



USA.gov is the U.S. government's official web portal to all federal, state and local government web resources and services.